Location: Omaha
(41.2590°N, 95.9380°W)
Time: 19:01:22
(UTC-05:00)

ISS - Pass Details

Date: 13 October 2017
Orbit: 401 x 408 km, 51.6° (Epoch: 19 October)

Event Time Altitude Azimuth Distance (km) Brightness Sun altitude
Rises 19:14:53 0° 309° (NW) 2,325 0.8 -6.3°
Reaches altitude 10° 19:17:03 10° 317° (NW) 1,464 -0.4 -6.7°
Maximum altitude 19:20:10 39° 28° (NNE) 620 -3.1 -7.3°
Drops below altitude 10° 19:23:17 10° 100° (E) 1,462 -1.6 -7.9°
Enters shadow 19:23:18 10° 100° (E) 1,471 -1.6 -7.9°
